RH
60 59 61 63 64 67 69 72 76 76 75 83 86 83 85 84 70 63 71 74 69 62 47 40 52 64 60 53 48 44 48 53 52 54 59 60 59 59 61 65 64 58 54 54 55 54 55 55 59 73 90 95 94 93 93 92 90 88 84 80 81 78 68 64 65 66 67 65 63 61 55 52 57 62 63 61 58 59 61 64 65 67 72 66 47 38 43
65 69 64 64 69 69 67 70 77 82 84 86 89 90 90 85 82 86 87 78 61 48 44 43 46 55 60 57 55 55 56 59 65 74 77 76 73 69 67 66 62 57 55 55 56 58 58 59 62 69 80 88 90 90 94 96 92 90 87 81 80 79 68 58 58 61 62 57 54 54 51 50 55 59 58 56 57 59 62 66 69 70 73 68 52 42 44
66 76 73 67 68 72 74 79 87 90 91 93 95 95 91 86 89 94 95 91 77 61 60 62 62 65 69 69 70 72 73 74 77 79 79 77 75 72 71 70 66 64 60 54 52 56 60 64 67 72 80 89 93 94 95 94 89 87 88 83 80 82 73 55 45 45 47 47 47 49 50 50 51 51 51 53 58 63 66 70 75 77 78 74 59 44 39
64 73 77 71 70 74 81 91 97 96 96 98 100 99 93 90 94 97 97 98 91 81 78 81 83 81 78 83 87 86 89 93 88 80 76 73 73 74 76 74 70 68 62 54 55 62 69 73 74 77 83 90 96 98 96 96 92 89 88 84 81 84 79 64 52 50 52 54 54 53 53 54 55 53 51 54 60 66 71 74 80 85 86 80 66 48 41
64 71 80 79 76 77 85 95 94 93 99 99 97 100 97 91 93 97 99 99 96 94 92 94 97 90 85 94 98 91 95 100 93 85 82 81 84 87 81 71 70 72 64 57 64 74 79 82 84 85 87 90 94 97 97 97 96 92 88 84 82 81 78 74 73 71 71 71 68 63 62 65 68 66 63 63 68 73 78 82 88 93 94 86 72 56 52
70 71 79 83 78 75 87 95 88 89 99 94 90 97 96 91 94 97 100 101 97 97 99 99 100 96 93 99 99 93 98 100 93 91 93 95 97 93 82 74 78 81 72 63 71 78 78 78 82 88 94 96 95 97 99 98 98 98 94 86 83 83 81 83 86 84 79 77 76 74 74 76 78 79 76 75 78 82 87 92 96 98 97 90 78 64 62
71 73 79 83 80 82 93 95 87 89 94 89 90 96 91 90 96 98 100 100 93 92 96 97 97 96 97 101 99 96 100 99 96 98 100 98 93 85 81 83 90 93 84 75 77 81 81 82 88 91 94 97 97 98 101 100 98 100 100 95 91 90 88 89 94 94 87 82 81 82 84 86 87 86 84 84 85 87 92 96 99 99 98 94 87 75 69
69 72 75 79 84 94 99 94 89 92 94 91 95 99 95 94 98 99 98 98 94 92 95 98 99 99 100 101 99 98 100 100 101 100 97 91 85 83 87 92 96 98 92 83 81 83 82 85 94 98 95 94 95 97 100 101 99 100 100 99 98 97 96 95 97 96 90 86 87 89 91 95 94 88 86 87 89 91 95 98 100 100 97 93 92 85 73
67 66 73 85 92 97 100 95 92 94 96 96 98 100 99 98 98 98 94 94 98 99 98 99 99 98 99 100 98 98 99 100 99 97 94 90 88 91 94 95 95 93 87 81 83 87 86 84 89 97 98 97 97 98 99 99 100 101 100 99 100 100 100 99 98 94 90 90 94 97 97 98 97 92 89 88 91 95 99 100 100 100 99 94 94 95 82
69 68 76 87 88 91 98 99 95 95 98 99 99 99 100 97 96 98 97 97 99 100 99 101 99 97 99 100 97 97 100 101 99 97 97 96 95 95 95 93 91 87 81 79 84 89 90 86 87 94 97 97 98 99 100 99 99 100 100 99 99 99 99 99 99 98 98 98 99 99 96 96 96 96 95 94 95 99 100 100 100 100 100 98 97 100 92
72 76 74 79 86 94 100 98 95 96 98 97 97 99 100 97 94 96 99 99 99 99 100 101 100 98 98 99 99 99 100 100 99 99 100 100 99 97 96 96 94 89 86 88 89 90 89 87 88 92 96 99 99 99 100 100 99 100 99 99 100 99 98 99 99 100 101 100 98 96 96 97 98 99 99 98 99 100 100 100 101 99 100 100 99 100 97
71 77 73 80 95 100 98 96 96 98 98 98 97 96 98 99 96 96 100 100 99 100 100 100 101 100 99 99 100 100 100 100 100 100 100 100 100 99 99 99 98 97 96 97 97 96 94 92 91 92 96 100 100 99 100 100 100 100 99 99 100 100 99 100 100 100 100 100 99 98 98 100 100 100 100 100 100 100 100 100 100 100 100 99 100 100 98
70 74 76 88 99 99 97 100 100 98 95 95 97 97 99 100 97 96 100 100 99 100 100 100 100 100 99 100 100 100 100 100 100 100 100 100 100 100 100 100 100 100 99 100 100 100 100 99 97 96 97 100 100 100 100 100 100 100 100 100 100 100 100 100 100 100 99 99 100 100 99 100 100 99 100 100 100 100 100 100 100 99 99 99 99 100 100
76 73 80 90 97 99 99 99 97 94 91 93 98 100 99 98 98 98 98 99 100 100 100 100 100 100 100 100 100 100 100 99 100 100 100 100 100 99 100 100 100 100 100 100 100 100 99 101 100 98 99 100 100 99 99 100 100 100 99 100 100 100 100 100 100 100 100 100 100 100 100 100 100 100 100 100 100 99 99 100 99 96 96 97 97 97 98
83 79 84 89 94 99 98 94 92 91 92 96 98 95 92 92 93 93 94 96 99 100 99 100 100 100 100 100 99 100 100 100 100 100 99 100 100 100 101 100 100 100 100 100 100 100 100 100 100 98 98 99 101 99 97 98 100 100 100 100 100 100 100 100 100 99 100 100 100 100 100 100 100 100 100 100 100 100 99 100 100 98 97 96 95 95 94
89 92 95 96 98 101 98 93 92 91 92 93 91 89 89 88 88 89 91 94 97 99 100 101 100 99 100 100 100 100 100 100 100 100 100 100 100 100 100 100 100 100 100 100 100 100 100 100 100 98 95 96 99 99 97 94 94 96 97 98 99 100 100 100 100 100 100 100 100 100 100 100 100 100 100 99 99 99 98 96 95 96 95 92 91 91 90
93 98 100 100 100 100 97 93 92 93 90 87 86 90 91 88 87 88 87 87 92 96 98 99 100 100 99 99 100 100 100 100 100 100 100 100 100 101 100 99 100 100 99 100 101 100 100 100 99 99 97 96 98 98 97 95 93 93 93 93 93 95 95 96 97 97 97 98 98 98 99 99 99 98 97 96 95 94 94 94 92 91 90 88 86 85 84
96 98 100 101 99 99 99 95 93 94 93 90 92 94 90 87 86 87 86 87 91 95 98 100 100 100 100 100 101 100 100 100 100 100 100 99 99 99 98 99 100 100 99 98 98 99 99 97 96 96 95 94 96 96 95 95 94 93 92 91 91 90 89 90 90 89 90 90 90 91 91 90 90 90 89 87 86 85 85 85 85 83 81 79 77 76 75
96 97 100 101 99 100 100 97 96 96 96 96 96 94 91 90 91 91 94 97 97 98 100 100 100 100 100 99 99 100 100 100 100 99 99 98 97 96 95 95 95 95 95 94 92 92 92 91 90 90 90 89 89 90 90 90 90 90 89 87 86 85 84 84 83 83 83 82 82 82 83 82 81 81 80 80 79 79 79 78 77 76 74 73 70 67 65
95 99 102 100 100 101 100 99 99 97 93 92 92 91 92 93 93 93 94 97 99 100 100 99 100 100 100 100 101 101 100 98 98 96 94 93 92 91 90 89 88 88 87 86 85 83 82 81 81 81 82 83 82 82 83 83 83 83 83 82 81 79 78 78 77 77 76 76 76 75 75 76 76 74 72 71 69 68 68 67 65 64 62 59 57 54 50
98 101 101 98 97 99 100 100 99 95 89 85 82 81 80 78 79 84 85 85 89 92 94 97 98 96 96 97 98 98 98 96 93 91 90 89 87 86 84 82 82 83 82 81 80 78 75 74 73 72 72 72 70 70 72 74 74 74 74 74 74 74 73 72 72 71 70 69 68 67 66 65 65 63 60 59 57 55 54 53 51 50 49 47 45 44 43
94 96 98 98 97 98 100 100 100 98 93 89 88 89 84 71 62 58 57 59 63 65 69 75 80 84 89 90 89 90 92 92 90 88 87 85 82 80 79 78 76 76 76 75 75 74 73 72 70 69 67 64 61 58 57 58 61 62 65 67 68 70 71 71 70 69 69 67 65 63 62 61 59 59 57 54 53 52 50 48 46 44 43 42 38 36 34
94 96 98 98 98 99 99 99 99 99 98 97 98 98 92 83 73 63 58 56 52 47 45 47 50 53 56 60 66 68 66 67 73 76 76 76 76 75 74 74 75 73 71 70 69 68 68 69 67 67 66 63 59 56 52 50 50 51 53 55 56 59 64 68 69 68 68 68 66 63 61 59 56 53 49 45 44 42 39 37 35 32 29 27 23 21 19
97 97 95 97 99 99 100 99 99 99 98 97 99 100 99 98 95 89 87 86 81 74 73 71 64 55 51 53 62 68 66 60 52 46 46 48 50 54 56 57 58 60 59 59 59 58 58 59 58 58 58 57 55 54 51 50 48 47 47 48 48 51 55 58 62 64 64 64 63 60 57 54 48 43 38 33 29 28 26 23 21 18 16 14 12 11 11
99 97 96 98 99 99 99 99 98 96 90 85 88 94 96 96 100 101 98 98 97 95 97 96 87 79 78 74 69 76 85 68 38 34 50 48 33 32 38 35 32 34 35 35 37 39 41 42 41 41 42 41 41 41 40 40 40 39 41 43 44 46 49 51 53 55 54 52 50 46 43 40 35 31 29 25 20 16 15 14 13 12 12 12 12 13 14
99 98 98 98 99 100 101 99 96 95 92 85 84 84 78 79 92 100 97 97 100 98 98 100 94 91 97 94 81 83 89 65 33 42 74 73 49 39 38 29 23 22 19 18 21 21 21 22 24 26 27 26 26 26 24 23 24 23 25 29 33 36 40 41 39 38 35 32 29 26 24 21 20 18 16 15 14 11 10 12 14 16 17 18 19 20 21
99 99 100 99 98 98 98 95 92 93 96 92 88 86 82 82 89 92 90 94 99 96 94 95 93 93 99 95 81 76 77 68 60 73 90 85 67 53 39 28 24 23 20 20 19 15 15 16 13 14 17 15 15 17 15 13 14 15 14 16 20 23 26 28 26 23 22 19 16 15 15 14 14 16 15 15 15 15 13 14 16 17 19 22 23 24 24
91 89 91 93 90 86 89 91 89 89 92 88 83 84 89 91 91 91 92 94 95 95 96 94 92 95 99 93 84 83 86 88 91 97 99 94 84 69 48 33 27 26 25 23 18 17 24 25 18 20 29 23 11 11 15 13 11 13 12 12 15 17 17 18 18 16 15 14 13 14 17 18 18 19 19 18 18 18 18 19 21 20 21 22 25 26 25
82 79 82 86 86 86 90 91 89 89 91 89 85 85 87 88 88 89 92 93 92 95 100 98 94 96 97 92 88 92 98 100 99 100 103 100 87 67 50 37 28 26 28 27 27 34 43 38 27 35 52 44 18 7 14 16 13 14 15 13 12 13 13 13 14 13 14 17 20 21 22 23 22 19 18 18 19 20 21 23 24 25 24 23 24 25 24
81 80 80 83 86 91 94 92 91 91 89 88 88 86 84 86 87 87 89 92 92 90 94 97 95 95 96 94 92 94 97 94 87 84 88 82 60 40 31 28 25 24 25 28 37 45 48 41 33 39 57 60 37 14 11 16 17 20 26 25 19 15 13 14 17 20 21 23 26 27 25 23 20 17 16 17 19 21 23 24 24 25 26 26 26 27 27
88 87 85 81 80 84 86 86 88 90 87 87 89 88 86 88 89 85 86 91 91 85 83 84 85 84 83 84 88 95 93 75 54 46 48 45 34 26 23 22 20 20 21 26 35 40 39 40 41 41 48 57 49 25 12 17 22 24 32 38 33 26 25 29 33 34 32 30 29 28 24 20 18 17 16 17 20 24 26 26 26 27 28 29 30 30 29
86 84 83 78 75 77 80 79 81 85 88 87 87 88 89 89 89 89 90 89 84 75 68 65 67 69 67 65 67 72 69 53 40 37 38 34 28 24 22 19 17 18 19 23 31 39 39 39 43 43 40 46 49 33 14 17 27 29 36 47 48 40 41 48 48 42 37 34 32 28 23 19 16 16 15 16 19 23 24 25 27 29 30 30 31 31 30
82 80 81 79 76 79 82 82 82 85 87 87 88 90 90 89 90 92 87 75 65 61 62 65 67 64 61 60 59 58 54 47 41 38 37 35 30 22 18 18 17 16 18 19 25 36 43 42 43 42 38 47 61 50 25 21 32 36 44 62 70 63 56 55 50 42 35 32 29 26 21 18 16 14 13 14 17 20 22 23 26 28 29 30 32 32 31
76 75 78 82 83 83 82 84 86 86 85 87 88 86 85 87 89 83 67 53 49 52 58 64 65 61 59 60 58 57 56 52 45 39 37 38 33 22 17 20 18 14 17 20 21 31 43 47 48 45 39 46 60 54 33 31 43 49 58 77 87 83 73 60 48 40 34 28 24 22 19 17 17 16 16 17 20 22 23 23 26 29 30 31 33 33 31
54 57 65 76 85 85 83 86 89 87 86 89 88 86 87 85 74 58 46 43 47 50 51 51 52 55 59 61 60 61 61 56 50 45 40 39 36 27 21 24 20 14 20 32 36 40 48 52 51 50 47 48 50 44 36 45 61 69 77 88 93 89 81 69 52 39 29 22 21 21 19 18 20 22 22 22 22 23 24 24 26 30 32 33 32 30 26
57 67 75 81 86 88 88 91 91 89 89 90 87 89 92 79 54 39 39 43 45 47 51 52 50 51 56 60 62 65 66 64 62 53 42 40 40 31 25 29 24 12 20 41 49 50 56 58 53 54 56 55 50 44 44 57 72 80 86 94 96 93 88 77 58 40 27 20 20 22 22 23 25 25 25 25 24 24 26 28 30 33 34 31 27 24 20
68 77 84 86 86 88 91 93 91 89 91 92 89 90 87 69 48 40 40 40 42 45 49 52 51 50 53 59 63 65 66 68 67 58 48 45 44 36 34 37 27 12 20 38 43 47 61 65 57 55 60 58 53 51 55 67 81 89 93 97 97 96 92 80 60 44 40 37 30 24 25 30 31 27 25 26 26 27 30 33 34 32 29 25 22 19 18
78 86 90 90 89 92 95 95 88 83 85 89 90 86 74 56 47 44 40 38 42 46 46 49 53 53 55 59 63 66 70 73 72 65 55 48 46 46 45 40 25 11 13 21 27 45 68 72 61 57 60 57 54 59 68 79 89 94 96 96 96 97 94 79 57 47 52 52 40 29 29 33 33 30 28 27 28 31 34 34 32 28 24 21 20 20 20
94 99 96 93 92 93 95 95 90 88 91 93 88 76 61 49 48 49 46 43 45 44 43 50 58 61 64 68 70 74 79 80 78 73 61 51 49 50 46 40 35 25 11 5 17 45 70 77 71 68 69 70 71 74 80 88 94 96 96 96 97 98 94 76 53 44 44 39 31 31 36 37 34 31 30 29 32 37 38 33 28 26 24 22 21 22 21
98 98 97 98 98 95 94 96 95 94 93 84 68 55 49 49 52 53 50 51 53 49 46 51 60 65 71 78 83 89 92 90 82 73 64 57 52 46 44 53 60 43 14 4 18 39 58 76 85 81 74 76 82 83 82 85 89 94 98 98 96 97 94 76 57 53 56 47 37 36 39 39 36 33 32 35 40 41 38 35 31 28 28 27 26 27 28
96 97 99 100 98 94 94 94 89 81 72 60 49 44 45 50 54 55 53 57 65 64 57 55 58 64 75 88 97 100 100 96 84 71 63 59 54 51 60 78 74 40 8 4 14 18 29 58 86 90 83 80 81 82 83 83 83 88 98 100 96 99 96 74 51 52 65 65 55 46 40 39 39 35 33 40 47 45 40 40 39 35 35 36 35 35 37
100 99 97 95 97 99 97 89 75 62 51 42 38 38 41 44 48 50 51 56 64 68 66 62 59 61 70 82 86 85 88 91 84 71 63 61 54 50 61 72 59 26 5 7 11 7 11 34 64 84 94 95 90 85 84 85 84 89 99 101 97 95 85 59 38 43 61 68 67 61 49 38 38 39 37 41 48 48 45 45 45 42 42 44 43 43 44
90 83 82 89 94 92 83 74 62 50 41 38 38 39 41 41 40 41 44 50 57 63 67 68 65 65 70 74 73 76 86 93 87 75 68 64 56 50 54 57 44 21 8 8 10 9 11 22 40 59 74 86 92 91 87 87 87 90 95 99 98 94 79 50 33 46 70 80 78 73 59 40 34 40 41 40 43 46 46 45 44 44 45 46 44 42 40
75 68 73 82 78 63 58 63 61 49 40 41 44 41 37 35 34 34 38 44 51 59 64 67 69 73 77 80 83 89 97 101 98 92 86 83 80 79 75 62 40 19 9 8 11 11 9 14 25 34 38 47 62 72 77 83 86 86 89 95 95 90 78 54 34 44 73 84 77 72 68 54 40 39 42 40 39 41 43 42 41 41 41 40 38 35 34
69 67 63 55 46 46 58 69 63 48 39 38 36 31 29 32 36 38 39 40 41 45 51 58 63 68 75 86 97 100 98 97 100 101 96 94 95 92 80 59 36 19 9 9 13 16 14 14 18 20 20 23 29 36 46 59 68 73 83 90 81 67 63 57 45 47 63 70 61 60 67 61 45 38 42 43 40 40 40 40 39 39 38 36 35 34 34
76 74 68 61 60 64 63 50 35 28 30 32 31 33 39 43 44 45 47 46 41 37 43 52 56 58 66 84 100 103 96 93 95 94 90 89 88 79 66 54 42 27 13 8 11 17 20 21 23 23 23 25 26 26 30 39 46 53 63 67 52 35 36 50 59 65 70 65 54 52 56 52 43 40 43 43 42 43 43 41 39 38 36 35 35 35 36
81 81 89 92 85 71 52 33 23 29 42 49 47 44 44 43 41 40 42 42 39 36 40 47 54 61 73 84 93 98 99 99 98 96 94 94 90 78 65 56 46 29 13 7 11 15 17 20 24 26 25 23 23 24 24 26 30 37 43 44 36 26 26 37 57 77 86 77 60 49 46 45 42 41 41 41 43 45 44 42 39 36 33 33 34 34 34
83 80 79 69 54 42 35 29 28 41 61 68 58 43 36 36 35 36 39 42 42 42 43 47 59 77 90 91 89 93 97 96 94 96 99 100 100 95 84 71 58 42 24 11 7 11 14 15 17 21 22 19 17 18 19 19 21 27 32 34 34 33 30 34 50 76 91 83 63 48 44 43 40 36 34 37 41 44 42 40 36 30 26 27 29 29 28
89 82 69 61 62 64 53 37 38 58 74 69 50 36 33 34 33 35 42 48 52 57 65 73 82 93 98 93 89 93 95 90 87 92 97 97 98 100 94 81 69 59 45 26 11 8 12 14 13 14 16 17 15 14 16 17 20 24 29 32 35 36 35 37 52 77 95 90 70 52 44 40 34 29 27 29 31 33 34 32 28 23 19 19 21 20 19
93 88 82 81 85 78 53 34 40 55 56 42 33 32 33 32 33 38 42 44 49 61 76 86 89 93 96 96 95 96 95 88 83 84 87 88 89 93 94 88 78 70 63 50 32 15 9 10 12 12 13 15 15 15 14 14 17 20 23 27 32 36 39 42 51 68 82 81 67 51 41 33 27 22 20 19 19 20 21 21 19 16 14 12 13 14 13
80 79 80 80 76 63 44 34 39 43 36 29 31 34 30 29 36 40 37 34 39 50 62 72 79 86 92 95 94 94 95 92 86 81 81 84 84 84 85 82 75 70 72 72 63 45 27 15 11 10 10 11 13 15 14 14 15 17 17 19 22 27 32 38 43 49 53 52 45 34 27 23 19 15 13 13 12 11 12 12 12 11 10 9 9 10 9
71 68 64 60 59 57 47 39 40 46 46 44 43 39 31 31 35 34 27 26 36 47 53 61 74 84 88 89 89 90 91 90 85 81 80 82 82 82 80 75 68 65 68 73 78 77 67 50 35 26 20 13 10 11 13 13 14 15 16 16 18 19 21 24 27 28 28 27 24 19 16 15 14 13 12 12 11 10 10 10 10 9 9 10 10 9 9
Wind_Speed
11 6 4 4 3 4 5 5 8 9 9 7 5 3 4 4 5 5 3 2 5 5 6 11 16 18 16 12 11 8 6 7 7 7 8 9 9 9 10 9 8 8 8 8 9 11 13 16 19 21 22 25 28 32 34 35 36 36 36 37 36 34 34 34 33 33 33 31 29 27 27 27 25 23 22 21 19 18 16 15 14 12 10 9 8 9 11
14 10 7 8 7 6 5 4 4 6 6 5 4 4 5 4 4 3 3 6 8 8 10 11 14 18 18 14 11 9 8 7 7 7 8 9 10 11 10 9 9 8 8 9 9 10 12 13 16 19 23 26 28 32 36 37 38 38 37 38 39 37 35 35 34 33 33 32 31 30 30 29 26 25 23 22 20 19 18 18 16 15 13 11 10 11 12
13 10 8 8 8 6 5 2 2 5 4 4 4 4 5 4 3 3 3 4 7 9 12 14 16 16 14 12 9 8 7 7 6 7 7 8 10 10 8 7 7 6 8 10 11 12 13 13 13 16 22 27 27 30 35 38 38 37 37 39 39 38 37 37 36 35 34 34 33 33 32 30 28 26 25 23 22 21 22 22 20 17 14 12 12 12 12
12 10 8 7 6 7 5 3 2 5 4 3 4 3 4 3 1 1 1 3 7 9 10 12 13 12 8 8 7 6 6 6 6 7 7 7 8 7 6 6 7 7 9 10 11 11 12 13 12 13 18 25 27 29 33 35 37 38 38 40 42 42 41 40 39 38 37 36 35 34 33 31 29 28 27 25 23 23 25 26 24 22 18 14 13 12 12
10 9 9 6 5 5 4 4 5 4 4 3 2 2 4 4 0 3 4 2 8 9 8 9 10 8 5 6 6 6 6 6 7 7 6 6 6 7 8 8 8 7 9 9 9 9 11 12 14 15 16 18 22 26 30 33 37 39 38 40 43 44 43 43 41 40 39 38 36 35 33 32 30 30 29 28 26 26 26 26 25 24 21 17 14 12 12
7 6 6 5 6 5 3 4 5 2 3 4 4 4 6 5 2 2 2 3 9 8 8 11 9 6 5 7 6 5 7 7 7 6 5 5 5 7 10 9 6 6 8 8 7 8 11 12 13 14 14 12 13 21 29 32 35 37 38 39 42 42 41 42 41 41 40 38 37 35 33 33 31 31 32 31 29 27 24 22 20 18 19 17 15 13 13
5 1 4 4 3 2 3 2 3 2 3 5 2 3 7 6 4 3 3 7 9 8 8 9 7 5 6 7 6 6 8 8 7 6 6 6 7 9 9 7 4 4 7 8 8 7 10 11 10 10 11 11 9 15 24 28 30 34 38 41 41 40 40 41 40 39 39 38 37 36 34 33 33 33 32 30 28 25 21 19 17 14 15 16 15 15 14
6 4 5 3 1 4 3 2 3 2 5 4 1 2 6 7 6 5 6 7 7 5 8 8 6 6 7 7 7 7 9 9 7 6 6 8 10 9 7 6 4 4 5 7 8 6 6 8 7 5 5 9 10 12 18 24 27 32 36 39 40 38 38 39 38 37 38 38 38 37 36 36 34 34 33 30 27 24 21 21 18 15 16 16 15 15 15
10 8 4 6 6 4 2 2 2 2 4 4 4 4 5 7 6 6 8 7 4 5 9 9 8 8 9 8 7 8 10 9 8 7 8 9 9 8 6 5 4 2 1 2 3 3 2 3 4 6 5 1 3 7 10 16 22 29 31 34 36 36 36 37 36 36 35 33 34 35 36 35 34 33 31 28 25 23 23 22 19 16 17 17 15 15 16
9 6 3 6 6 3 3 3 3 1 2 3 4 4 3 6 7 6 8 9 7 8 11 12 12 11 11 9 8 9 10 9 7 7 9 10 10 9 7 7 6 5 4 3 4 4 3 2 3 6 9 9 6 4 6 8 12 17 21 25 29 33 34 34 33 33 31 29 30 30 29 28 27 25 24 24 23 21 21 20 18 16 17 17 16 17 17
9 8 4 1 2 3 2 3 3 1 1 1 3 4 2 6 8 6 8 10 10 11 12 13 14 15 14 11 10 12 13 11 9 9 9 9 10 10 10 9 7 6 6 6 6 6 4 4 5 6 10 11 9 7 7 7 8 10 14 18 21 24 28 29 29 29 29 29 29 26 21 18 18 18 19 20 20 19 19 18 17 16 16 17 18 18 18
10 7 2 5 6 3 2 2 1 0 0 1 3 2 3 7 7 5 6 8 11 12 11 11 14 16 16 15 15 17 16 15 14 14 13 12 11 10 9 9 9 8 8 7 7 5 3 4 5 6 8 10 9 8 8 8 7 8 11 13 15 16 19 23 24 23 22 22 23 20 17 16 17 18 18 19 18 17 18 18 17 17 17 18 19 20 20
6 3 6 9 6 4 3 4 3 3 3 3 2 3 5 6 5 3 4 6 8 10 9 9 13 15 14 15 18 20 19 18 18 18 17 16 15 14 14 13 12 12 11 10 9 7 7 7 7 7 9 10 9 9 10 10 8 9 9 8 9 11 12 14 15 15 15 17 18 17 17 18 18 18 17 16 16 16 17 18 18 19 20 20 21 22 22
5 6 10 10 7 6 5 4 4 4 3 4 3 4 5 6 6 4 1 3 3 4 6 9 12 13 11 13 17 18 18 18 19 18 18 17 17 17 17 17 16 15 14 12 11 10 9 10 9 9 10 11 11 11 11 11 11 11 11 11 9 9 9 9 10 11 13 15 15 16 16 16 16 14 13 13 13 13 14 15 16 17 18 17 18 20 22
5 8 10 7 5 6 5 3 4 5 6 7 7 6 6 7 7 8 6 4 2 1 4 8 10 9 9 12 15 14 13 15 16 16 15 15 14 14 13 13 13 13 13 12 11 9 8 8 8 8 7 9 11 11 10 9 10 11 11 11 11 10 9 8 8 9 10 11 12 13 12 12 12 11 10 11 12 12 12 12 12 13 14 14 14 15 18
7 10 11 9 9 10 8 6 8 10 10 10 8 7 7 6 7 9 8 6 4 1 2 5 6 6 8 12 15 13 11 12 12 12 11 11 10 9 8 7 7 7 7 8 8 8 7 6 6 6 5 5 7 9 8 6 6 7 7 7 7 7 7 7 7 6 7 7 7 8 8 8 9 8 7 8 10 10 10 10 11 11 13 14 14 14 16
17 18 19 17 15 13 11 10 10 10 10 9 8 8 7 6 7 9 9 8 7 5 2 2 4 7 10 13 12 11 9 9 10 10 10 9 9 8 7 6 5 4 5 6 6 7 7 6 5 6 6 5 5 6 6 5 4 4 4 4 4 3 3 3 3 3 3 3 3 3 3 4 4 5 6 8 9 9 9 10 11 12 13 14 16 16 17
24 23 22 19 16 15 13 12 11 10 10 9 8 7 6 7 8 10 10 11 10 9 6 2 2 6 8 7 7 6 6 7 8 8 8 7 7 7 7 6 5 4 5 5 5 5 5 4 3 4 4 4 4 4 4 4 4 3 3 3 2 1 1 0 0 0 1 1 1 2 3 4 5 7 8 10 11 11 11 11 12 13 13 15 16 16 17
15 17 17 15 15 16 15 13 12 12 12 11 9 9 9 10 11 11 12 12 11 10 7 4 1 3 4 3 4 4 5 5 6 6 6 6 6 6 5 4 3 3 2 2 2 2 2 2 1 1 2 1 1 1 1 1 1 1 1 1 1 1 2 3 3 3 3 3 4 4 5 6 7 8 9 10 11 11 12 12 13 14 14 15 16 17 18
15 17 15 13 13 13 12 11 11 11 11 11 10 10 11 11 12 12 12 12 12 11 10 8 5 4 4 3 3 3 4 4 4 3 3 3 3 3 3 2 1 0 1 1 1 2 1 1 2 2 2 2 3 3 4 4 4 5 5 6 6 6 6 6 6 6 6 7 7 8 8 9 9 10 10 10 11 11 12 13 14 15 16 16 17 18 19
18 16 13 12 12 12 11 10 10 9 9 8 7 7 8 8 8 9 9 9 9 9 8 7 6 5 4 3 2 1 2 2 2 1 1 1 1 1 2 2 3 3 3 3 3 4 4 4 3 4 4 4 4 5 5 6 6 6 7 8 8 9 9 9 9 9 9 9 9 9 9 9 10 10 11 11 11 12 13 14 14 15 17 17 18 19 21
15 13 10 9 9 10 10 10 9 9 8 7 7 7 7 6 6 6 7 6 6 6 5 4 3 3 2 2 2 3 3 3 4 4 4 5 6 6 7 7 7 7 7 7 7 7 7 7 7 7 7 7 7 7 8 8 8 9 9 10 10 10 10 10 10 10 10 11 11 11 11 11 11 12 12 13 13 14 15 15 16 17 18 19 20 21 22
12 10 8 8 9 10 10 9 9 9 8 7 8 8 7 6 6 7 6 6 6 6 6 5 5 5 5 5 6 6 7 7 7 8 9 10 10 11 11 10 10 10 10 10 10 10 10 11 10 10 10 11 11 11 11 11 12 12 12 13 13 12 11 12 12 11 11 11 12 12 13 13 13 13 13 14 15 15 16 17 17 18 19 19 20 21 21
12 11 10 9 9 9 9 9 8 8 7 7 7 7 7 6 6 5 5 5 5 6 5 4 5 5 6 5 5 5 5 5 6 7 8 9 10 11 12 12 12 12 12 12 12 12 13 13 13 12 13 13 13 14 14 15 15 15 15 15 15 15 14 14 14 14 14 14 14 14 14 15 15 15 15 15 15 15 17 18 18 18 19 19 19 19 19
13 12 10 10 10 9 9 8 7 6 6 5 6 6 6 6 5 5 4 3 3 3 3 3 3 4 4 4 5 4 3 4 7 8 7 7 7 8 9 11 12 13 13 14 14 15 15 14 14 14 15 15 15 16 16 17 17 17 17 16 16 15 15 15 15 15 15 15 15 15 15 16 16 17 17 17 16 16 16 17 17 17 17 17 17 17 17
12 11 11 10 9 8 7 6 6 6 6 5 5 6 6 7 7 5 4 3 3 2 2 2 3 2 2 3 4 4 3 6 9 7 5 5 7 7 8 9 10 12 13 14 15 16 16 16 15 16 17 17 17 16 17 18 17 17 17 16 15 15 14 14 14 13 13 13 14 14 14 15 15 15 16 16 15 14 14 14 14 14 14 14 14 14 14
11 10 8 8 7 6 5 5 5 5 6 6 6 6 6 6 6 5 4 4 3 2 2 1 1 1 1 2 3 3 4 6 7 5 4 5 6 7 9 10 10 11 12 13 14 15 16 16 16 17 17 17 16 15 15 16 17 16 17 16 15 15 14 14 14 13 13 13 13 13 13 13 13 13 13 13 12 12 11 11 12 12 12 12 12 13 13
9 8 6 6 7 6 6 5 5 5 5 5 5 5 4 4 4 4 3 3 3 2 2 1 1 2 2 3 4 5 5 5 4 5 5 6 6 7 9 10 11 11 12 13 14 15 14 14 15 15 15 17 16 13 12 13 14 15 15 15 15 15 15 14 13 13 13 12 12 12 11 11 11 11 11 10 10 10 10 9 10 11 11 10 10 11 12
9 8 7 6 6 7 6 5 5 4 4 3 3 3 3 2 2 2 2 2 2 2 2 2 2 2 2 3 4 4 4 4 4 5 5 6 7 8 9 10 11 11 12 13 13 13 13 13 13 13 12 15 17 15 11 11 12 13 13 14 14 14 14 12 12 12 11 10 10 10 10 10 10 10 10 10 10 10 9 8 8 9 9 9 9 9 9
7 7 7 6 5 5 5 4 3 2 2 2 1 1 1 1 1 1 2 2 2 2 2 2 3 3 3 4 4 3 4 5 5 6 6 8 10 11 10 10 10 10 11 12 12 12 13 14 15 13 11 12 16 16 13 11 11 12 12 11 12 12 11 10 10 10 9 9 9 9 9 9 8 9 9 10 10 10 10 10 9 8 8 8 9 9 9
6 6 6 5 5 4 3 2 2 1 0 1 1 1 2 2 2 3 3 3 3 4 4 4 4 5 5 5 5 4 5 7 9 9 9 10 11 11 11 11 11 11 12 12 12 13 14 16 16 15 14 13 14 15 13 12 11 11 11 11 11 12 10 9 9 9 8 8 8 8 8 8 8 9 10 10 10 11 11 11 11 10 10 9 10 10 11
4 4 4 3 3 3 1 0 0 0 1 1 1 2 2 2 3 4 4 4 4 5 6 6 6 6 7 7 7 8 9 11 11 10 10 10 10 9 10 11 12 13 13 14 14 14 15 16 16 17 18 17 15 14 14 13 11 10 10 10 12 12 11 10 10 11 10 9 9 9 9 9 9 10 10 11 11 12 12 13 12 12 12 11 11 11 12
2 2 3 3 2 1 0 1 1 1 1 2 2 2 2 3 3 4 5 7 7 7 7 7 7 7 8 9 10 11 12 12 12 11 11 10 10 10 10 11 13 13 14 14 15 15 16 16 16 17 18 17 14 13 13 12 11 10 9 10 11 12 12 11 11 11 11 10 10 10 10 10 10 11 11 11 11 12 13 13 12 12 12 12 11 11 11
5 5 3 2 1 1 1 1 1 1 2 2 2 2 3 3 4 6 7 9 9 9 9 8 9 10 10 10 11 11 11 11 11 12 11 11 10 11 11 12 14 15 15 15 14 15 15 15 16 16 17 16 15 12 11 11 11 11 11 11 11 12 13 12 11 11 11 11 10 10 10 10 10 11 11 11 11 11 12 12 12 11 11 10 10 10 10
4 5 3 1 0 1 2 2 2 2 3 3 3 4 4 4 5 8 10 10 10 10 10 11 11 11 11 12 12 12 11 11 11 11 11 11 11 11 12 13 15 16 16 16 15 15 14 14 13 14 14 15 15 12 10 11 12 12 12 12 11 11 13 13 12 11 11 11 10 10 10 9 9 9 11 11 10 10 11 11 10 10 9 9 9 9 9
2 2 2 1 2 2 3 3 3 3 3 4 4 4 4 5 7 9 11 11 11 11 11 12 12 12 12 12 13 12 12 12 11 11 11 10 10 10 11 12 14 16 15 15 15 16 16 14 12 11 12 13 12 11 11 13 13 13 13 12 10 10 12 13 12 11 10 10 11 10 8 8 8 9 9 10 10 10 11 10 9 8 8 8 8 9 9
1 1 1 2 2 3 3 3 4 4 4 5 5 5 5 6 8 10 11 12 12 12 12 12 13 13 13 13 13 13 13 13 12 11 10 10 9 10 10 11 13 15 14 13 15 17 16 14 11 10 11 12 11 11 13 13 12 12 12 11 9 10 12 13 12 9 8 8 9 9 7 7 8 9 9 9 10 10 10 8 7 7 8 7 7 8 8
1 1 2 2 2 3 3 3 4 5 5 6 6 6 7 8 9 11 12 12 12 12 12 13 14 14 14 13 13 13 13 13 11 10 11 11 10 9 10 10 12 13 13 13 14 15 15 13 11 10 10 10 9 11 12 12 12 12 11 10 9 10 12 13 11 8 6 7 8 7 6 7 8 9 9 9 10 9 8 7 7 7 6 6 6 7 8
1 1 2 2 2 3 4 4 5 5 5 6 7 8 9 10 11 11 12 12 12 13 13 13 13 13 13 13 13 13 13 12 11 10 12 12 11 9 10 11 11 11 12 12 12 12 13 12 10 7 6 6 8 10 11 11 11 12 11 10 10 11 12 13 12 9 8 9 9 7 7 7 8 9 9 9 9 8 7 6 6 6 5 5 6 6 7
2 3 4 4 4 4 5 5 5 5 6 6 7 9 11 12 12 12 12 12 12 13 13 12 13 12 12 13 13 13 12 12 12 12 12 12 11 9 9 9 9 11 13 13 11 11 12 11 8 5 4 6 8 10 10 11 12 11 9 9 10 10 12 13 11 8 7 9 8 7 7 7 8 9 9 8 8 7 6 6 5 5 5 5 5 5 5
3 4 4 5 5 6 6 6 6 6 7 8 9 10 12 13 13 13 13 12 12 13 13 13 13 12 12 12 12 12 12 12 13 13 12 10 10 10 8 6 8 12 15 14 11 11 10 9 8 7 7 9 10 10 10 11 12 11 10 9 9 9 11 12 11 9 7 7 7 7 7 8 8 8 8 7 7 7 6 5 5 5 5 4 4 4 5
4 4 5 5 6 6 6 6 7 8 9 10 11 12 13 13 13 13 13 13 13 13 13 13 13 13 12 12 13 13 13 12 12 12 11 10 9 9 7 6 9 14 16 14 11 10 9 9 9 10 9 10 11 11 12 13 14 13 10 9 10 11 12 13 12 9 8 7 6 7 7 8 8 7 7 7 6 6 5 5 5 5 4 4 4 4 5
5 6 6 6 6 6 6 7 8 8 10 11 12 13 12 12 13 14 14 13 13 13 13 13 14 13 12 13 13 13 12 12 12 12 11 10 9 9 8 8 10 14 15 13 11 10 9 8 9 10 10 10 11 12 13 14 14 12 9 8 10 13 13 12 11 9 7 6 6 7 7 8 7 7 6 6 6 6 5 5 5 4 4 4 4 4 3
6 7 7 6 6 7 8 8 8 9 10 11 12 13 13 12 12 13 12 13 13 13 13 14 14 14 13 14 13 12 11 10 10 10 10 9 8 8 9 9 10 13 14 12 10 9 9 9 9 9 11 12 12 12 13 13 14 14 12 10 10 12 11 10 10 9 8 7 7 7 6 7 7 6 6 5 5 6 6 5 4 4 3 3 3 3 2
7 7 8 8 8 8 8 8 8 9 10 11 12 13 12 12 12 12 12 13 13 14 14 14 14 14 14 13 12 11 10 9 8 9 9 8 7 8 9 9 11 13 13 11 9 8 9 9 9 9 10 11 12 12 13 13 14 15 15 13 12 11 10 9 9 10 10 10 9 8 7 7 7 7 6 5 5 6 6 5 4 4 3 3 3 3 2
6 7 7 8 8 7 7 9 10 10 10 11 12 12 11 11 12 13 14 14 14 15 15 15 15 14 14 12 10 9 10 9 9 9 9 9 9 10 11 11 11 13 12 10 9 8 8 8 8 8 9 9 9 10 11 11 12 13 13 12 12 11 10 9 8 9 10 11 11 10 9 8 8 7 6 6 6 6 6 5 5 4 4 3 3 3 2
6 6 5 5 6 7 8 9 10 10 9 10 10 11 11 12 13 14 15 15 15 15 15 15 14 14 13 11 9 8 8 8 9 9 9 9 10 11 11 10 10 12 11 9 8 8 9 8 8 8 7 7 7 8 8 9 9 10 11 11 11 10 9 9 10 10 11 13 13 12 10 10 9 8 7 7 7 7 6 6 6 6 5 4 3 3 2
6 6 6 7 9 10 10 10 10 9 9 8 9 10 11 12 13 13 13 13 13 13 14 14 13 12 11 11 11 10 9 10 10 9 9 9 9 10 10 9 9 10 11 9 7 7 8 8 8 8 7 7 7 7 7 8 8 9 9 10 10 9 9 10 11 12 12 13 13 13 12 11 11 10 10 10 9 8 8 8 7 7 6 5 4 4 3
5 6 7 8 9 8 8 8 9 8 8 8 8 9 11 11 12 12 12 11 11 11 11 10 10 10 10 10 10 10 10 11 11 10 10 10 10 9 10 10 10 10 10 10 8 6 6 7 8 7 7 7 7 6 7 7 7 7 7 7 7 7 8 9 11 12 12 12 12 12 12 12 12 11 11 11 10 9 9 8 8 7 6 6 5 5 4
5 5 6 6 6 6 7 8 8 8 9 10 10 10 10 11 11 11 11 11 10 9 8 8 9 9 9 9 10 10 10 11 12 12 12 13 11 10 11 11 11 10 10 10 9 8 7 7 7 7 7 7 7 6 6 7 7 7 6 5 5 5 6 8 10 11 12 12 11 12 12 12 11 10 10 10 9 9 8 8 8 7 7 6 6 5 5
6 6 6 6 6 6 8 8 8 8 9 10 10 10 10 11 11 11 11 10 10 9 8 8 9 9 10 10 10 10 10 11 12 12 12 12 12 11 11 11 11 9 9 9 10 10 9 8 8 7 7 7 7 7 7 7 7 7 6 5 4 4 4 6 8 9 10 11 11 11 11 10 9 9 8 8 8 7 7 7 7 7 7 7 6 6 5
7 7 7 7 7 8 9 9 9 9 9 9 10 11 11 12 12 12 12 10 9 9 9 8 8 10 11 10 8 8 9 11 12 12 12 12 11 10 10 11 10 9 8 8 8 8 9 9 10 9 9 8 8 7 7 7 7 7 7 6 5 4 4 4 6 7 8 9 9 9 9 9 8 7 7 7 7 6 6 6 6 7 7 7 7 7 6
Wind_Direction
258 255 230 217 200 202 228 270 295 295 302 322 328 298 295 284 259 265 283 216 193 202 248 269 277 284 291 296 296 288 266 249 240 229 231 237 242 247 248 250 254 257 258 260 262 263 262 257 248 237 231 231 231 227 223 223 222 219 222 225 214 207 210 210 208 210 210 211 213 214 218 222 223 225 228 233 239 246 252 258 265 273 279 275 268 266 258
258 253 234 226 220 218 229 249 298 311 313 321 324 313 308 273 237 253 257 225 219 225 235 246 262 273 282 289 291 283 266 250 230 212 215 223 232 242 247 251 255 261 269 271 268 264 264 265 258 244 237 236 234 230 225 223 222 219 219 219 214 209 210 211 210 211 212 215 217 219 222 224 225 227 230 235 241 247 252 258 264 271 274 270 263 262 257
260 250 227 227 221 214 213 213 322 336 333 332 333 323 310 286 239 224 229 248 263 252 239 244 254 262 274 285 283 273 266 258 233 220 227 234 241 248 253 261 269 285 295 291 288 282 273 266 259 244 236 235 235 233 229 223 220 220 219 215 211 210 210 212 213 214 216 219 222 225 226 227 229 232 235 239 243 247 252 256 260 266 269 265 259 258 257
260 242 217 219 217 207 194 185 317 340 353 348 347 330 314 319 298 260 243 246 265 266 253 247 254 264 270 269 268 261 252 254 254 250 251 259 266 268 273 288 301 309 307 303 303 302 291 276 264 252 243 238 235 237 235 228 222 222 221 215 209 207 208 211 214 215 217 221 224 226 227 229 232 234 236 239 242 247 254 259 262 261 258 257 257 259 260
252 230 207 196 201 208 197 219 268 322 357 336 313 273 290 311 30 69 44 238 240 257 251 227 241 265 248 227 252 254 234 245 266 267 267 275 279 284 294 308 318 310 305 311 318 319 309 289 274 270 263 248 242 244 243 237 229 225 224 220 212 207 207 211 214 217 219 221 225 227 228 231 234 235 236 238 241 248 255 262 265 259 249 249 255 259 261
259 231 212 201 210 214 190 224 254 319 346 295 269 255 277 286 224 139 56 255 246 251 233 218 233 253 210 206 238 240 227 248 269 264 259 264 270 288 302 313 322 307 305 316 324 327 323 304 282 275 265 248 249 249 242 238 234 226 221 219 214 210 210 211 213 216 219 221 225 228 229 232 234 236 237 239 245 251 256 263 267 254 237 238 245 250 254
280 242 218 233 239 183 139 208 261 299 283 276 280 274 277 272 240 216 236 259 267 260 225 219 235 229 206 215 223 214 219 238 253 249 247 266 282 294 302 306 305 295 304 318 319 322 330 323 305 286 260 237 237 242 238 239 237 225 217 214 212 213 214 214 215 216 216 218 222 225 228 231 233 235 237 241 247 251 252 258 264 249 229 229 238 243 246
265 227 210 206 147 107 115 239 269 276 268 259 165 235 273 269 251 242 240 253 274 249 206 202 208 203 212 222 218 224 231 224 225 241 257 276 286 288 285 281 282 279 291 311 309 301 319 334 340 336 278 241 225 225 237 244 234 219 212 209 208 210 214 214 216 218 216 216 219 222 225 227 229 234 238 241 244 247 250 253 254 245 231 229 237 244 243
257 247 189 141 146 125 84 289 277 297 281 252 193 206 270 289 281 258 235 224 217 197 192 194 200 210 218 218 220 241 238 215 210 241 261 264 260 253 246 240 228 203 213 325 324 295 293 328 5 40 44 349 214 197 216 233 224 212 210 210 209 210 212 213 218 224 223 217 214 217 222 228 231 234 236 237 239 245 250 249 245 239 232 231 238 248 246
267 260 156 144 169 138 46 337 304 302 271 241 212 206 257 302 304 276 242 224 199 182 189 196 204 208 207 209 221 225 211 198 203 227 237 236 225 216 211 202 182 155 135 110 92 94 94 96 86 69 63 57 51 101 148 179 202 206 210 214 214 213 215 214 216 220 221 218 217 221 226 229 231 231 230 232 235 240 245 245 240 236 232 234 242 248 247
271 266 238 169 103 97 57 326 300 258 251 245 189 179 254 315 316 290 252 235 214 197 197 207 214 209 200 203 210 195 184 188 200 200 200 205 205 204 197 187 175 156 140 129 122 114 109 127 123 90 75 74 66 63 93 125 158 182 197 208 212 216 218 216 211 213 218 222 228 233 231 226 225 225 227 230 231 237 243 243 238 234 233 239 244 245 245
252 257 218 76 63 65 43 5 3 263 301 136 158 163 330 328 322 292 245 229 221 215 212 221 224 214 203 201 196 185 182 192 194 186 181 180 176 174 168 162 159 153 147 142 138 143 170 177 156 123 101 100 99 89 81 88 120 153 174 192 200 205 213 219 222 224 222 221 224 226 220 218 221 223 225 228 233 240 241 235 230 229 233 241 244 242 241
225 192 117 97 73 39 45 74 103 118 89 71 42 358 356 352 342 308 230 212 217 220 222 228 226 220 214 206 192 181 177 182 182 177 175 171 164 156 151 148 145 140 137 136 135 139 150 149 144 138 127 121 123 117 97 83 93 114 125 141 158 165 179 198 208 204 195 198 208 211 209 212 217 217 218 226 238 243 237 230 229 231 235 241 244 242 241
178 149 120 102 65 42 60 99 125 130 103 74 63 51 48 47 42 42 128 178 188 206 218 224 224 225 227 212 193 178 170 170 171 171 169 168 167 164 158 155 152 144 139 138 135 132 132 127 124 126 122 117 117 115 102 91 92 96 98 101 109 121 137 155 165 167 169 179 188 189 190 199 206 208 211 218 225 226 223 223 226 229 233 240 243 242 242
110 103 101 90 51 50 61 83 109 124 126 116 113 102 77 62 54 53 63 86 88 151 218 222 225 234 236 214 195 183 172 166 165 166 165 165 167 167 163 158 154 148 145 145 141 136 130 126 126 127 119 111 111 110 103 94 89 87 88 90 91 94 100 112 128 142 151 159 163 162 166 180 189 192 199 204 203 200 203 208 213 219 228 236 239 240 241
70 74 81 81 76 74 73 81 97 112 120 116 109 96 80 70 62 55 54 60 60 64 214 226 236 235 221 207 197 190 184 175 169 168 169 169 172 177 179 172 160 152 148 145 142 138 133 130 129 127 120 108 103 104 106 103 93 87 86 85 85 88 91 98 111 124 134 140 143 143 148 160 167 172 186 202 206 206 208 212 216 219 227 235 239 242 244
95 95 93 89 85 82 80 82 86 95 103 98 88 86 83 78 75 71 66 63 60 56 48 284 250 216 199 194 190 188 189 185 181 180 179 180 184 190 196 195 186 169 151 141 136 129 125 123 117 109 105 100 90 87 94 100 97 93 91 90 91 92 89 94 104 115 129 140 151 162 176 190 193 197 211 227 236 238 236 236 238 239 240 244 247 248 251
96 93 89 89 89 88 86 84 82 85 87 83 80 82 84 82 79 76 72 68 65 61 54 33 220 196 187 187 185 187 191 190 189 187 185 188 196 200 203 201 189 168 149 140 137 125 116 112 104 90 90 95 89 79 79 86 91 92 89 94 108 119 118 124 155 177 199 218 232 241 249 249 244 240 240 242 246 249 249 248 249 250 251 254 255 256 258
97 89 86 88 89 87 85 85 89 91 88 86 86 84 83 83 80 79 78 75 71 70 69 71 130 165 168 177 175 170 173 177 180 183 184 186 191 195 194 189 179 164 147 137 138 127 108 101 74 34 33 32 354 335 345 345 347 350 351 339 293 264 259 264 271 273 273 272 267 260 257 254 252 251 250 248 248 250 252 253 254 255 257 259 261 262 263
103 98 97 95 90 87 87 88 93 96 93 92 91 87 83 81 79 80 81 81 79 78 77 75 77 89 102 115 133 143 148 153 161 171 180 180 178 180 181 180 186 347 1 357 344 344 3 19 7 357 356 342 317 303 300 297 296 294 289 283 281 278 274 272 271 270 268 265 263 261 260 257 256 255 255 255 255 254 254 256 257 259 260 260 261 263 263
99 100 102 98 91 89 88 86 89 92 89 86 83 80 75 70 68 67 66 67 71 71 71 71 69 67 71 72 75 109 130 147 169 180 204 231 264 291 297 306 308 306 308 307 310 316 323 325 322 318 315 314 308 305 301 297 292 287 282 278 277 276 275 273 271 269 268 266 263 262 260 258 258 259 259 259 260 259 259 259 260 261 263 263 264 265 266
106 110 108 102 99 97 92 86 83 83 83 81 81 80 71 55 44 41 38 38 41 42 40 35 26 12 359 339 311 290 282 282 280 281 281 283 291 297 297 298 300 299 296 295 294 292 291 289 287 285 285 287 287 285 284 283 283 282 279 276 274 273 274 274 272 271 272 272 273 273 272 271 270 270 271 272 271 270 270 270 269 270 270 270 271 271 272
116 117 113 110 111 108 101 91 83 79 77 76 80 85 83 71 51 36 31 27 24 26 25 17 5 351 336 328 319 309 302 295 287 283 281 281 285 288 286 284 284 283 280 280 280 280 279 278 275 275 276 278 278 277 276 274 275 275 275 274 272 271 272 273 273 273 274 276 276 276 276 276 275 275 275 275 275 275 274 273 273 273 273 272 272 272 273
115 115 114 112 111 108 105 100 94 88 82 78 78 78 79 79 71 56 49 40 28 29 35 34 22 8 1 3 1 345 329 319 314 308 299 290 288 289 289 287 284 282 278 273 269 266 265 267 268 270 272 273 274 275 275 274 273 272 272 272 273 273 272 272 272 272 272 273 274 275 275 276 276 275 273 273 274 277 277 276 275 274 274 274 274 274 274
113 117 117 111 107 106 106 101 97 95 93 88 83 78 79 86 85 73 64 54 37 29 31 28 19 13 7 4 8 11 0 350 352 349 332 316 312 306 299 297 296 295 292 287 281 274 267 264 263 261 260 260 262 263 265 266 268 268 269 269 271 272 272 271 271 270 271 270 270 271 273 274 275 275 274 272 271 271 272 273 273 273 273 273 272 272 273
109 113 113 108 104 101 99 91 84 81 79 72 65 67 80 93 89 77 71 73 67 48 29 12 3 12 7 348 0 10 330 325 344 354 342 325 327 324 316 312 308 302 298 296 293 288 283 279 275 268 262 257 255 256 259 260 260 261 261 262 262 262 263 264 264 264 266 267 267 267 267 267 267 267 268 268 266 262 260 262 265 266 266 267 268 270 271
104 105 104 102 98 94 97 100 95 86 82 79 73 67 70 77 75 69 69 73 68 61 65 51 0 0 339 316 336 339 311 316 338 350 339 329 326 321 317 314 311 309 307 303 300 296 292 291 289 284 278 271 263 259 258 258 257 256 255 254 253 253 253 255 256 257 256 258 259 258 258 258 259 259 261 264 266 266 263 262 262 262 261 262 265 267 268
98 97 97 103 106 105 107 109 105 99 94 89 84 76 68 66 66 62 57 57 48 36 34 24 0 358 328 311 324 333 328 330 340 335 324 317 314 316 318 315 313 313 308 303 301 299 295 293 293 292 288 282 275 267 260 258 257 255 253 251 249 248 249 250 252 253 251 250 250 250 249 251 255 259 262 265 269 271 271 268 265 264 262 261 261 263 266
101 101 103 108 108 108 110 110 105 102 98 90 81 70 59 52 53 39 15 8 14 8 343 323 329 334 313 305 315 320 317 316 321 322 316 306 308 318 322 318 315 314 307 303 302 299 295 293 293 291 289 285 282 277 269 264 261 256 251 249 246 246 248 250 250 249 245 240 238 238 240 243 249 256 263 269 273 276 278 275 272 273 275 274 271 271 274
108 106 104 101 97 97 104 106 102 96 89 78 64 40 20 357 342 337 331 327 328 320 303 300 308 308 304 309 313 310 309 314 317 316 312 312 317 322 322 319 318 316 311 308 303 297 296 296 294 290 286 282 281 278 273 270 268 264 261 260 259 258 258 258 256 253 247 239 235 237 243 250 256 263 271 277 281 285 286 285 283 281 284 287 288 287 287
115 109 104 98 96 98 103 100 93 92 73 7 327 314 313 306 301 303 301 298 299 297 293 295 301 302 306 313 312 303 306 315 317 313 310 312 317 320 322 324 324 320 314 307 299 293 291 291 290 289 286 280 278 276 271 266 263 263 266 273 275 274 273 271 268 266 261 256 254 256 259 263 270 275 278 281 284 284 284 285 285 285 286 288 290 291 292
118 104 102 104 102 96 89 78 6 290 293 297 299 303 306 303 304 306 306 306 306 302 299 299 302 305 309 314 316 313 312 314 317 317 314 313 315 319 323 325 324 322 317 311 304 298 292 287 283 282 281 281 279 272 263 257 254 257 267 276 277 274 270 268 267 266 264 263 266 269 271 273 276 276 276 278 281 281 280 281 284 287 288 289 291 292 294
127 109 106 116 130 118 37 318 283 276 285 286 289 299 304 305 308 313 319 322 321 314 307 302 301 303 305 308 313 316 315 315 317 321 321 320 319 321 324 325 325 324 320 314 308 304 299 292 284 277 275 276 276 267 254 244 241 245 255 264 270 271 267 262 261 262 262 260 262 267 271 274 275 275 276 277 279 280 281 283 285 286 287 289 292 293 295
171 174 161 144 157 189 243 300 301 284 277 275 277 283 291 301 311 317 320 321 318 315 313 308 302 301 301 302 305 310 314 317 320 324 326 325 320 319 321 325 328 329 326 320 315 310 304 296 288 279 272 269 267 262 248 234 232 236 238 244 255 266 266 261 259 259 260 259 260 263 268 272 276 279 280 282 283 283 284 284 284 284 286 289 289 290 291
182 190 202 245 283 242 261 281 286 280 276 276 281 282 282 292 308 314 316 316 315 314 313 309 304 300 298 296 298 302 308 314 318 321 324 323 318 316 318 323 328 333 332 327 324 322 317 306 293 281 269 262 260 254 234 221 224 229 232 237 248 262 268 268 266 263 261 261 262 264 267 272 276 279 281 284 288 287 283 280 279 279 279 280 280 280 282
182 194 227 277 296 287 284 283 278 276 275 276 279 280 280 292 307 311 312 313 313 312 310 309 308 307 304 301 299 301 305 310 314 318 322 323 318 315 315 318 325 332 333 328 324 326 325 320 309 289 266 256 251 237 219 216 220 225 231 237 245 257 266 271 270 266 262 262 263 264 268 273 272 274 280 285 286 282 277 273 270 267 265 267 269 271 273
200 211 246 271 286 290 290 283 279 278 276 276 279 280 283 294 304 307 307 307 307 306 306 307 309 309 308 306 305 305 307 309 310 314 319 322 318 314 313 315 323 331 334 328 323 324 324 324 322 301 271 254 238 221 213 214 218 224 231 237 244 254 265 272 273 269 267 267 265 262 263 269 273 278 284 285 280 273 267 262 256 253 254 256 260 263 266
288 286 283 284 293 298 295 287 283 279 276 274 276 278 282 287 292 297 300 300 300 301 303 304 306 308 308 307 306 306 307 308 309 313 321 324 320 314 313 313 318 327 331 327 321 320 322 326 329 314 288 264 237 217 211 212 218 228 236 240 244 252 264 272 275 270 264 263 263 258 255 263 274 282 284 280 271 262 255 250 248 249 250 251 253 256 259
288 286 285 291 299 299 295 291 289 286 281 277 278 284 289 290 289 290 293 293 294 297 300 300 301 303 303 301 302 304 304 304 305 310 318 324 321 315 315 315 310 315 327 330 322 316 320 328 334 329 302 265 234 217 210 213 223 234 242 245 248 255 267 275 278 273 262 257 254 249 252 263 274 281 281 276 265 255 247 242 242 243 245 246 250 255 259
276 276 280 290 297 298 296 291 286 283 283 286 290 293 294 293 291 290 291 292 292 294 297 297 296 296 295 296 299 299 296 297 300 304 314 322 319 311 317 323 312 311 325 331 320 306 309 319 326 321 284 254 238 226 220 223 231 237 243 250 255 263 274 281 282 276 264 257 248 241 251 269 280 283 282 275 263 251 243 239 240 240 240 245 251 255 261
278 276 278 286 293 294 293 289 287 290 296 300 302 298 293 291 290 289 289 289 289 290 292 292 290 290 289 290 291 290 287 289 295 301 310 319 317 310 314 318 308 313 325 329 315 300 300 304 304 296 278 258 245 236 233 237 242 241 241 250 257 259 267 276 276 266 256 254 249 245 256 273 282 283 279 270 258 248 240 235 237 237 234 239 248 255 258
277 279 286 291 292 292 292 291 291 296 299 300 300 298 294 293 293 292 292 291 290 289 290 289 287 288 288 286 287 289 288 286 291 300 308 314 314 310 304 290 295 311 324 327 317 307 302 294 290 290 281 265 253 249 248 252 256 252 245 246 252 255 261 271 274 265 253 248 248 250 260 271 279 280 275 264 252 244 237 233 231 230 230 236 245 251 256
282 285 292 295 292 293 297 295 292 292 292 293 294 294 293 294 295 295 296 297 295 293 291 290 288 289 289 288 288 290 287 284 289 297 302 305 308 306 296 286 296 312 322 324 321 318 311 295 285 284 282 276 269 262 259 262 269 270 264 255 256 261 267 272 270 261 249 241 240 249 264 273 274 271 269 261 246 235 230 228 223 221 224 230 236 241 249
287 289 294 297 297 300 301 295 290 291 291 291 291 291 291 292 293 294 294 296 296 295 293 291 289 288 289 289 289 286 280 279 286 293 297 304 310 303 293 291 303 314 319 322 326 326 316 301 289 283 281 280 278 273 270 272 277 280 279 271 261 262 268 272 266 256 244 237 237 243 260 273 271 262 261 260 247 233 225 221 216 212 215 222 228 234 243
285 288 291 295 298 299 297 294 294 294 293 291 290 291 291 291 291 291 291 293 293 293 292 289 286 285 286 287 285 276 264 259 261 268 274 279 279 276 281 295 309 314 315 320 328 331 323 313 306 298 290 286 283 282 280 280 280 281 281 278 270 264 266 271 269 259 249 243 239 237 246 263 267 259 252 252 248 239 231 223 216 211 212 219 231 240 246
283 286 291 294 296 297 298 299 299 297 294 293 291 290 291 293 292 290 290 291 292 292 291 288 286 285 285 282 276 267 264 265 265 263 261 258 260 268 283 297 305 306 309 315 323 328 328 325 320 316 309 302 296 291 288 288 288 286 285 284 282 279 273 266 261 259 256 251 244 239 244 257 262 255 245 241 243 242 239 236 231 224 217 215 227 236 240
281 287 287 289 297 304 305 302 299 295 293 292 290 288 291 294 293 289 288 289 290 289 288 286 285 285 283 277 268 261 261 265 267 266 264 264 268 276 282 285 287 292 299 308 318 322 323 322 321 321 320 317 312 306 299 296 295 292 289 287 288 285 274 254 243 244 250 250 245 242 246 254 256 250 241 236 236 237 240 242 239 232 221 217 227 237 245
281 287 292 298 304 305 303 301 300 297 292 290 291 293 296 298 297 295 293 292 290 289 287 286 286 283 277 272 266 259 253 252 254 256 258 264 270 277 283 284 285 287 292 298 309 317 316 313 311 311 311 309 308 304 300 295 292 289 287 285 281 273 261 246 238 238 244 249 247 245 246 251 252 247 239 233 230 230 235 238 238 233 224 220 226 234 238
274 287 300 305 304 302 301 305 308 305 299 297 300 301 301 300 301 300 298 296 294 292 290 290 288 283 277 275 272 264 257 256 256 255 256 258 260 267 277 285 289 288 285 287 294 303 307 306 304 302 300 301 301 300 298 297 294 290 287 284 277 265 248 235 231 234 242 249 251 251 252 254 253 246 237 231 227 225 228 233 235 233 227 222 222 226 228
275 290 303 302 298 301 306 305 302 298 299 302 305 304 302 302 304 304 303 303 302 298 291 283 275 269 265 266 266 262 260 260 261 261 262 263 262 263 271 282 290 290 283 279 282 288 292 296 298 297 296 298 300 302 303 303 302 299 293 285 277 266 249 236 234 238 245 251 255 256 257 256 252 243 236 232 228 224 225 231 236 237 235 231 229 228 226
273 278 284 285 290 302 308 304 298 297 298 300 300 298 298 299 301 301 302 306 309 306 301 292 279 269 264 262 258 254 256 263 267 267 265 263 262 263 267 275 285 291 286 279 280 284 287 290 293 296 299 301 302 303 304 305 305 305 303 294 281 269 252 241 240 244 247 250 253 254 251 248 245 239 233 231 229 226 226 231 236 241 245 247 245 243 239
271 275 282 289 296 303 305 303 303 302 299 295 294 297 297 298 298 297 298 301 306 305 304 298 284 274 271 267 259 257 269 277 277 273 268 265 265 268 270 274 281 289 291 286 284 284 287 291 295 298 300 303 304 304 305 305 303 303 303 301 294 285 269 250 243 243 243 243 245 245 241 238 237 233 230 230 232 233 233 236 239 243 248 252 256 258 257